Regional Weather Roundup
Issued by NWS

Home | Current Version | Previous Version | Graphics & Text | Print | Product List | Glossary On
Versions: 1 2 3 4 5 6 7 8 9 10 11 12 13 14 15 16 17 18 19 20 21 22 23 24 25 26 27 28 29 30 31 32 33 34 35 36 37 38 39 40 41 42 43 44 45 46 47 48 49 50
000
ASUS43 KLMK 220010
RWRKY
KENTUCKY REGIONAL WEATHER ROUNDUP
NATIONAL WEATHER SERVICE LOUISVILLE KY
700 PM EST TUE FEB 21 2017

NOTE "FAIR" INDICATES FEW OR NO CLOUDS BELOW 12,000 FEET
WITH NO SIGNIFICANT WEATHER AND/OR OBSTRUCTIONS TO VISIBILITY.

KYZ001>023-026-027-061>063-070>075-220100-
WESTERN AND SOUTH CENTRAL KENTUCKY

CITY           SKY/WX    TMP DP  RH WIND       PRES   REMARKS
PADUCAH        CLOUDY    60  55  83 SE5       29.91R
HENDERSON      CLOUDY    59  54  82 NE3       29.92S
OWENSBORO      CLOUDY    61  55  81 E6        29.93R
HOPKINSVILLE   CLOUDY    67  54  62 SE10      29.91R
BOWLING GREEN  CLOUDY    66  53  63 SE14      29.96R
GLASGOW        CLOUDY    63  51  65 S8        29.98R
$$

KYZ024-025-028>034-038-045-046-053-220100-
NORTH CENTRAL KENTUCKY

CITY           SKY/WX    TMP DP  RH WIND       PRES   REMARKS
LOUISVILLE/SDF CLOUDY    69  49  48 S12       29.96R
LOUISVILLE/LOU CLOUDY    68  51  54 SE8       29.97R
FORT KNOX      CLOUDY    59  59 100 E9        29.96S
$$

KYZ035>037-039>044-047>052-055>060-089>105-220100-
NORTHEAST KENTUCKY

CITY           SKY/WX    TMP DP  RH WIND       PRES   REMARKS
LEXINGTON      LGT RAIN  67  49  52 SW13      29.99R
COVINGTON      LGT RAIN  56  55  97 CALM      29.99R
FRANKFORT      CLOUDY    63  52  67 CALM      29.97R
$$

KYZ054-064>069-076>088-106>120-220100-
SOUTHEAST KENTUCKY

CITY           SKY/WX    TMP DP  RH WIND       PRES   REMARKS
JACKSON        CLOUDY    68  42  38 CALM      30.00R
LONDON         LGT RAIN  64  49  57 SW5       30.00R
SOMERSET       CLOUDY    63  50  63 S7        30.02R
MIDDLESBORO    CLOUDY    66  46  48 CALM      30.01S
MONTICELLO     LGT RAIN  59  54  83 VRB5      30.03
$$




USA.gov is the U.S. government's official web portal to all federal, state and local government web resources and services.